Regional Weather Roundup
Issued by NWS

Home | Current Version | Previous Version | Text Only | Print | Product List | Glossary On
Versions: 1 2 3 4 5 6 7 8 9 10 11 12 13 14 15 16 17 18 19 20 21 22 23 24 25 26 27 28 29 30 31 32 33 34 35 36 37 38 39 40 41 42 43 44 45 46 47 48 49 50
095
ASUS44 KFWD 172201
RWRTX
NORTH TEXAS HOURLY WEATHER ROUNDUP
NATIONAL WEATHER SERVICE FORT WORTH TX
400 PM CST FRI NOV 17 2017

NOTE: "FAIR" INDICATES FEW OR NO CLOUDS BELOW 12,000 FEET WITH NO
SIGNIFICANT WEATHER AND/OR OBSTRUCTIONS TO VISIBILITY.

TXZ118-119-172300-
DALLAS/FORT WORTH METROPLEX

CITY           SKY/WX    TMP DP  RH WIND       PRES   REMARKS
DFW AIRPORT    PTSUNNY   84  65  52 S21       29.74F
DALLAS LOVE    PTSUNNY   82  64  54 S16G24    29.76F
FTW MEACHAM    SUNNY     85  65  51 S21G30    29.74F
DAL-EXECUTIVE  MOSUNNY   81  65  58 S15G25    29.77F
FTW-ALLIANCE   MOSUNNY   84  64  50 S17G26    29.74F
FTW-NAS-JRB    MOSUNNY   84  63  49 S17       29.75F
FTW-SPINKS     SUNNY     84  64  51 S16G25    29.78F
ARLINGTON      SUNNY     82  65  56 S16G29    29.76F
GRAND PRAIRIE  SUNNY     82  63  51 S12G22    29.79F
ADDISON        SUNNY     81  64  57 S16G30    29.76F
MESQUITE       PTSUNNY   81  64  57 S23G31    29.79F
LANCASTER      CLOUDY    81  65  58 S16G25    29.80F
$$

TXZ091>094-102>105-117-120-121-131>134-172300-
NORTH CENTRAL TEXAS

CITY           SKY/WX    TMP DP  RH WIND       PRES   REMARKS
SHRMAN/DENISON NOT AVBL
GAINESVILLE    MOSUNNY   82  62  50 S21G29    29.74F
BOWIE          MOSUNNY   83  60  45 S14G22    29.72F
DECATUR        MOSUNNY   84  61  45 S15G21    29.73F
DENTON         MOSUNNY   83  64  52 S21G30    29.74F
MCKINNEY       MOSUNNY   80  66  62 S17G24    29.75F
BONHAM         CLOUDY   N/A N/A N/A S22G31    29.76F
ROCKWALL       MOSUNNY   79  65  62 S18G30    29.78F
TERRELL        MOSUNNY   80  63  55 S18G28    29.79F
WAXAHACHIE     MOSUNNY   82  66  58 S18G26    29.80S
CLEBURNE       SUNNY     84  64  51 S15G24    29.79F
GRANBURY       SUNNY     87  62  43 S16       29.77F
$$

TXZ083>090-098>101-113>116-127>130-139>142-154-155-172300-
WESTERN NORTH TEXAS

CITY           SKY/WX    TMP DP  RH WIND       PRES   REMARKS
WICHITA FALLS  CLOUDY    85  55  35 S20       29.67F
WF-KICKAPOO    CLOUDY    85  58  39 S13G23    29.71F
VERNON         CLOUDY    89  29  11 SW14G21   29.67F
ABILENE        SUNNY     79  61  53 S12       29.79F
ABILENE-DYESS  SUNNY     80  62  53 S12       29.77F
GRAHAM           N/A     86  59  39 S10G20    29.71F
BRECKENRIDGE   SUNNY     86  55  35 SW16G24   29.76S HAZE
CISCO          SUNNY     84  61  45 S15G22    29.80F
EASTLAND       SUNNY     83  61  48 S13G24    29.78F
RANGER         SUNNY     84  60  44 SW13G21   29.79F
MINERAL WELLS  SUNNY     87  59  38 SW16      29.74F
STEPHENVILLE   SUNNY     83  61  48 S9G17     29.82F
COMANCHE       CLOUDY    83  62  50 S13G22    29.80F
BROWNWOOD      CLOUDY    84  59  42 S16       29.81F
COLEMAN        CLOUDY    86  54  33 SW9       29.81F
$$

TXZ143>147-156>162-174-175-172300-
CENTRAL TEXAS

CITY           SKY/WX    TMP DP  RH WIND       PRES   REMARKS
WACO           SUNNY     82  64  54 S17G26    29.81F
WACO-TSTC      SUNNY     82  64  54 S17G29    29.82F
WACO-MCGREGOR  MOSUNNY   82  65  56 S16G24    29.82F
HILLSBORO      CLOUDY    82  66  57 S23G31    29.80F
MEXIA          SUNNY     80  63  57 S24G33    29.83S
HEARNE         PTSUNNY   81  65  56 S17G24    29.87F
CAMERON        MOSUNNY   82  65  56 S16G24    29.85F
TEMPLE         CLOUDY    84  65  52 S23G30    29.83F
KILLEEN        CLOUDY    82  64  53 S13G22    29.83F
KILLEEN-SKYLRK CLOUDY    84  65  52 S15G22    29.84F
FORT HOOD      CLOUDY    83  64  52 S20       29.80F
GATESVILLE     CLOUDY    82  63  51 S15G25    29.84S
HAMILTON       CLOUDY    82  63  52 S16G22    29.83F
LAMPASAS       CLOUDY    81  64  55 SW14G24   29.84F HAZE
$$

TXZ095>097-106>112-122>126-135>138-148>153-164>167-172300-
EAST TEXAS

CITY           SKY/WX    TMP DP  RH WIND       PRES   REMARKS
PARIS          PTSUNNY   76  64  66 SW22G32   29.77F
SULPHUR SPRNGS PTSUNNY   78  64  61 SW20G30   29.81F
MOUNT PLEASANT MOSUNNY   77  64  65 S15       29.82F
GILMER         CLOUDY    77  64  64 S13G22    29.83S
MINEOLA        CLOUDY    77  64  65 S12G18    29.81F
TYLER          PTSUNNY   78  65  63 SW17      29.83F
LONGVIEW       NOT AVBL
MARSHALL       PTSUNNY   77  64  62 S9G16     29.87S
ATHENS         CLOUDY    77  61  57 S7G21     29.82F
PALESTINE      MOSUNNY   80  65  59 S15G23    29.86F
JACKSONVILLE   PTSUNNY   78  66  66 S13G22    29.88F
HENDERSON      PTSUNNY   78  65  63 S9G16     29.86F
CENTER         MOCLDY    78  62  56 S10G21    29.89F
NACOGDOCHES    MOSUNNY   81  66  60 S13       29.88F
LUFKIN         SUNNY     80  66  62 S12       29.88F
$$

SUPPLEMENTAL OBSERVATIONS (NWS FORT WORTH AREA)

CITY           SKY/WX    TMP DP  RH WIND       PRES   REMARKS
$$

SUPPLEMENTAL OBSERVATIONS (NWS NORMAN AREA)

CITY           SKY/WX    TMP DP  RH WIND       PRES   REMARKS
GOODLETT         N/A     91  28  10 SW15      29.67S
ODELL            N/A     88  42  20 S16       29.67S
CROWELL          N/A     89  41  18 SW17      29.70S
KNOX CITY        N/A     88  45  22 SW14      29.72F
SEYMOUR          N/A     87  48  25 S17G23    29.71F
$$

SUPPLEMENTAL OBSERVATIONS (NWS SAN ANGELO AREA)

CITY           SKY/WX    TMP DP  RH WIND       PRES   REMARKS
WEINERT          N/A     90  48  23 SW15      29.72F
HASKELL          N/A     87  46  23 S14       29.73F
THROCKMORTON     N/A     84  60  44 S12       29.74F
STAMFORD         N/A     83  60  44 S15G23    29.74F
CLYDE            N/A     81  61  51 S10       29.82F
$$

SUPPLEMENTAL OBSERVATIONS (NWS SHREVEPORT AREA)

CITY           SKY/WX    TMP DP  RH WIND       PRES   REMARKS
$$

SUPPLEMENTAL OBSERVATIONS ARE A COLLECTION OF AUTOMATED INSTRUMENTS
THAT ARE MAINTAINED BY A VARIETY OF FEDERAL AND STATE AGENCIES.
CERTAIN ELEMENTS...SUCH AS HUMIDITY VALUES AND SUSTAINED WIND
SPEEDS...MAY BE APPROXIMATED.





USA.gov is the U.S. government's official web portal to all federal, state and local government web resources and services.